Wind_Speed
19 21 23 25 23 17 12 13 13 13 14 15 17 20 22 25 26 24 23 22 18 17 17 17 19 19 13 8 10 16 19 20 20 17 14 14 14 14 12 12 13 11 9 10 13 12 11 12 12 12 12 11 10 10 9 8 8 8 8 8 8 8 8 6 5 6 5 5 5 5 5 6 7 8 8 9 10 10 10 10 9 9 9 10 12 15
18 23 25 22 20 16 13 13 14 15 14 14 17 19 22 24 24 23 20 16 13 15 13 12 16 16 10 7 8 14 18 19 21 21 19 15 14 15 14 13 12 12 12 13 13 13 12 11 12 12 11 10 10 9 9 9 9 10 10 9 9 9 8 6 6 6 6 7 7 6 6 7 7 7 8 8 9 10 10 10 10 9 9 10 11 13
18 25 24 18 17 17 15 15 15 14 14 15 17 20 23 23 23 21 16 12 13 13 11 10 14 14 10 10 10 12 16 15 15 18 19 18 17 16 15 13 12 13 14 14 14 14 14 12 12 13 12 11 10 11 11 10 11 13 12 10 10 9 9 8 7 7 7 8 7 6 6 6 6 6 7 8 9 10 10 10 10 10 10 10 10 11
20 22 18 15 15 15 15 14 12 12 14 15 17 20 22 21 21 21 17 14 14 12 11 12 13 14 12 12 12 13 15 14 13 16 18 19 19 16 16 14 14 15 15 14 14 14 15 15 14 14 13 12 12 12 13 12 13 13 12 11 10 10 10 9 8 8 8 8 7 6 6 6 7 7 8 9 10 10 11 11 10 10 10 10 10 11
20 18 13 13 12 11 12 10 10 12 13 15 16 18 19 18 19 20 17 15 15 13 12 12 12 17 18 18 18 17 17 18 17 18 17 18 19 18 18 17 16 16 15 15 14 14 14 15 16 16 15 15 14 14 14 14 13 14 14 13 12 12 12 11 10 9 9 8 8 7 8 8 8 9 9 9 10 10 11 11 10 9 9 10 9 10
16 12 11 11 10 10 12 10 10 11 12 13 14 14 16 16 17 17 15 13 14 12 10 9 8 15 24 23 20 19 18 17 16 16 15 14 18 19 19 18 17 16 16 15 14 14 14 15 16 17 18 17 16 15 14 14 14 15 16 16 15 14 14 13 12 11 10 9 9 9 10 10 10 9 9 9 10 10 11 11 10 9 9 10 9 9
12 6 6 8 8 9 11 11 9 8 10 12 11 11 13 15 16 16 13 12 13 11 11 10 6 11 24 21 16 18 17 15 13 13 13 11 15 18 19 18 18 18 18 16 15 14 14 15 16 17 18 17 16 15 15 15 15 15 17 18 18 17 16 16 15 13 12 11 10 11 12 12 11 9 9 10 11 11 11 10 9 9 9 10 10 9
9 4 5 8 9 12 12 10 7 8 10 9 7 9 11 14 16 15 14 15 16 15 14 11 5 9 18 19 17 18 18 15 13 13 12 9 11 15 18 19 19 19 18 17 16 16 15 15 16 17 18 17 17 17 16 16 16 16 17 18 19 19 19 18 17 16 14 13 12 12 13 13 11 9 9 10 11 12 12 11 10 10 10 10 10 9
10 9 10 12 14 16 14 11 9 10 12 9 7 11 13 15 17 16 17 19 19 18 13 8 3 6 11 17 16 14 14 12 10 10 7 3 7 12 16 17 17 17 17 16 16 16 16 15 15 16 17 18 18 18 18 17 17 17 18 18 19 20 20 20 20 19 17 15 14 14 14 13 12 10 9 10 11 13 14 13 11 11 12 12 11 10
15 14 15 16 18 17 14 12 12 13 13 11 12 15 16 16 18 18 20 23 21 17 10 7 3 5 8 15 12 10 12 11 9 10 7 2 6 9 12 13 14 14 14 15 15 16 16 16 16 18 18 18 19 19 19 20 20 20 20 20 21 21 21 22 22 21 20 18 17 16 15 14 13 11 10 10 11 13 14 14 13 13 13 13 13 11
18 18 18 18 17 15 14 14 15 14 14 15 15 16 17 17 19 20 23 24 18 9 3 7 6 3 5 11 12 12 15 15 13 10 5 3 7 8 10 10 10 11 12 14 15 17 18 17 18 19 19 19 19 19 20 21 21 22 22 22 23 22 23 24 24 24 23 21 19 17 15 14 13 11 11 11 12 13 15 15 15 15 15 15 13 12
19 18 18 18 16 15 16 17 16 16 16 17 17 17 18 17 16 16 17 16 9 3 3 8 8 3 5 8 14 15 14 15 14 10 4 3 5 7 8 8 8 9 11 14 16 17 19 19 20 20 19 19 18 19 19 20 21 22 23 23 24 24 24 26 26 27 26 23 20 18 16 16 13 11 11 12 12 13 14 15 17 16 16 15 14 13
18 17 17 18 18 17 17 18 18 17 17 17 19 18 14 10 7 7 7 6 5 3 3 7 8 7 7 10 14 14 11 10 9 7 2 3 5 6 7 8 8 9 11 14 16 18 19 20 20 20 19 19 18 18 19 20 22 22 23 24 25 25 26 27 28 29 28 25 22 20 18 16 14 11 11 11 11 12 13 15 18 17 16 15 14 14
16 15 15 16 17 15 17 18 16 13 13 13 15 15 11 4 2 2 3 4 6 3 3 6 8 8 7 8 11 11 9 9 6 3 1 3 5 6 7 9 9 10 12 15 17 18 19 20 21 21 20 19 19 18 18 20 22 23 25 27 27 27 28 30 31 31 30 27 23 22 21 18 15 13 12 11 11 12 12 15 18 19 17 14 13 14
14 13 9 8 9 9 10 11 10 10 12 13 12 12 13 10 3 3 4 3 5 4 5 7 7 6 5 6 8 8 8 7 5 2 3 4 6 7 9 11 11 12 13 15 17 18 20 22 22 23 23 22 21 21 21 22 23 26 28 30 30 28 29 32 31 30 31 31 29 25 24 20 16 14 13 14 13 12 12 15 18 20 17 15 14 14
16 14 6 3 4 5 6 7 8 11 11 12 13 14 16 14 9 8 7 7 7 5 5 7 7 10 11 9 8 8 7 6 4 5 6 7 8 8 10 11 11 12 13 15 16 18 21 22 24 25 24 22 21 21 22 22 24 27 28 29 29 28 31 33 33 31 29 28 27 27 26 23 18 15 15 15 14 11 10 14 17 18 17 15 15 14
12 12 6 4 3 4 6 8 9 11 10 8 11 15 15 12 10 9 8 7 5 3 4 6 8 11 10 7 7 7 6 6 6 8 8 7 7 7 7 7 9 10 11 13 15 18 20 21 23 23 22 20 19 20 21 21 23 24 25 27 28 30 35 38 39 36 30 27 26 28 28 26 19 16 16 15 12 9 9 12 16 18 17 17 15 14
14 14 7 3 3 2 3 5 6 8 12 11 10 11 11 10 11 10 6 2 1 1 4 6 8 11 8 3 6 9 8 7 7 6 5 5 5 5 6 7 9 11 12 13 15 17 17 18 20 20 20 19 18 18 18 17 20 21 23 26 28 34 39 44 52 51 38 30 26 22 24 27 23 20 19 16 14 13 11 12 17 18 17 18 16 13
18 15 9 5 4 6 4 4 6 3 6 9 7 5 5 6 6 7 5 2 1 1 3 4 7 11 10 7 8 9 8 7 6 5 4 5 5 7 8 10 12 14 14 15 16 17 16 16 16 15 15 14 12 13 14 16 20 21 23 24 27 32 31 36 51 57 43 25 19 15 19 24 23 21 23 22 16 13 11 13 17 18 17 18 17 13
21 16 12 9 4 7 5 4 8 7 1 4 5 5 6 5 5 6 6 4 3 1 2 3 5 7 9 10 11 10 8 7 6 5 5 5 6 8 10 12 14 14 15 16 17 17 17 18 15 11 10 9 10 13 15 19 21 20 21 21 23 25 19 25 31 23 22 10 11 14 19 24 24 23 25 23 15 10 13 14 14 15 16 18 16 12
21 21 17 12 8 10 8 5 9 9 4 1 3 4 8 10 10 9 8 8 6 2 2 1 3 8 9 9 11 12 9 6 5 4 5 6 8 10 12 13 14 15 15 15 15 16 17 17 14 10 9 11 13 15 16 19 19 16 18 17 16 17 13 16 23 13 10 4 2 9 17 20 21 20 18 16 11 11 13 11 9 10 14 16 13 10
18 23 22 18 16 15 11 9 12 10 4 2 2 3 5 7 9 8 6 9 9 6 4 3 3 9 10 9 11 11 7 3 3 4 5 8 10 12 13 14 15 14 13 12 13 15 15 14 12 11 11 12 14 16 18 19 18 16 17 15 12 13 11 10 11 13 10 5 4 6 14 15 17 17 14 12 10 8 7 8 9 11 12 12 10 7
13 18 19 19 19 16 13 14 15 10 2 3 4 6 8 7 4 6 5 6 7 8 7 5 4 7 9 9 10 8 6 4 4 5 7 9 10 11 13 15 14 12 10 10 11 12 11 11 11 12 13 13 14 16 16 16 15 15 17 16 12 10 11 12 8 4 5 5 3 5 11 12 15 16 13 10 9 8 8 9 10 11 11 9 7 5
11 15 14 13 14 15 15 13 10 7 3 2 5 8 10 9 5 6 8 8 7 8 7 5 3 5 7 7 8 7 7 6 5 6 8 10 11 12 14 14 12 9 9 8 8 9 10 10 11 13 14 15 15 15 14 14 13 12 14 14 11 8 8 9 4 2 6 7 4 4 7 10 11 10 7 6 8 9 9 10 11 11 9 7 5 4
9 12 11 8 8 9 9 6 2 4 2 5 7 7 10 11 7 6 9 9 7 8 8 5 3 5 6 6 7 8 8 5 5 7 9 10 12 12 12 11 9 9 7 6 7 9 10 11 12 14 15 15 15 14 13 14 12 11 12 12 9 5 3 4 2 2 5 8 8 6 8 12 11 9 8 7 9 10 9 10 11 10 7 4 4 4
4 4 7 7 4 2 3 2 2 4 6 7 7 6 10 12 8 7 6 6 6 8 8 6 3 4 5 6 7 7 5 4 5 8 9 11 11 10 9 8 8 8 6 5 8 10 12 13 13 14 16 15 15 14 13 13 12 11 11 11 9 4 3 5 3 4 6 8 9 11 11 11 9 9 9 8 8 9 9 11 10 8 5 3 4 4
4 1 2 3 4 3 2 3 5 7 9 9 9 9 10 10 7 7 5 5 5 5 6 7 5 4 5 6 5 4 3 3 6 9 11 11 8 6 6 7 8 8 7 7 9 10 12 14 14 15 16 16 15 14 13 12 11 10 11 10 8 2 3 4 5 8 8 7 7 10 11 9 8 8 10 9 9 9 10 10 8 4 2 2 3 3
4 3 2 1 3 4 3 3 5 6 8 9 12 12 11 8 5 6 5 2 2 3 3 5 2 3 4 3 2 2 3 5 8 9 10 8 5 5 6 8 9 9 9 9 10 11 13 15 16 15 16 16 15 14 13 11 8 7 8 8 6 2 4 4 7 11 10 9 8 8 7 7 8 9 9 9 9 8 8 7 4 1 1 3 3 3
5 4 3 1 1 1 1 2 4 6 6 8 11 11 9 6 3 0 2 4 5 4 1 3 6 6 3 2 2 2 3 6 6 6 6 5 4 5 7 8 10 10 11 11 10 11 13 16 17 17 16 16 15 14 13 10 7 5 3 3 3 3 5 7 11 13 11 10 10 10 8 8 9 10 8 8 8 6 5 3 1 2 3 3 3 3
4 4 3 2 2 2 0 2 3 5 5 7 9 7 4 2 4 6 7 7 6 5 4 6 6 4 3 3 1 3 3 4 4 3 4 4 4 6 7 9 11 12 12 12 12 13 14 15 16 17 16 15 14 13 13 11 8 5 3 3 2 3 6 10 13 13 12 11 10 10 10 8 8 8 7 7 5 4 3 1 2 3 4 4 3 3
3 3 2 2 0 2 1 2 4 5 5 6 6 3 3 5 7 8 8 7 7 7 7 6 6 4 4 3 0 3 3 3 3 3 3 3 4 5 7 9 11 13 13 13 14 14 14 14 14 15 15 13 12 11 11 10 8 5 4 5 6 7 10 11 11 11 11 10 9 9 8 7 7 8 7 6 4 3 2 2 3 3 3 3 3 3
3 3 1 3 2 2 1 2 3 3 3 3 3 8 9 7 7 8 8 8 7 6 6 6 6 5 4 2 1 2 3 3 3 3 3 2 3 5 7 9 11 13 13 14 14 15 15 14 13 12 12 10 9 9 8 7 6 4 4 6 9 11 12 11 10 9 8 8 7 7 6 6 7 7 6 4 3 3 3 4 4 4 3 3 3 2
3 2 2 2 2 3 3 4 4 1 1 1 5 11 9 6 6 5 5 6 6 6 5 5 4 4 3 1 2 2 2 3 4 4 3 3 4 6 8 10 12 12 13 14 14 15 16 15 12 10 9 9 8 6 5 5 3 3 4 8 11 13 12 10 8 8 6 6 6 6 6 6 6 5 3 3 4 5 5 6 6 5 3 2 2 1
2 3 4 3 5 6 5 5 4 1 2 2 4 9 8 8 6 4 3 4 5 5 4 4 4 3 2 1 2 2 3 4 4 4 3 4 5 7 8 11 11 12 13 14 15 15 15 13 10 8 7 7 6 4 3 3 3 4 6 10 13 12 11 8 7 7 6 6 6 6 6 6 5 3 2 3 5 5 6 7 6 4 2 2 2 3
4 3 4 5 6 7 6 6 5 2 5 5 6 10 8 8 7 3 2 4 5 3 2 3 3 2 1 2 3 4 3 3 4 4 4 5 6 8 9 10 11 12 13 14 15 15 14 12 8 6 6 5 3 1 1 3 6 7 8 11 12 11 9 8 7 6 5 6 6 7 6 5 3 1 2 3 5 5 5 4 3 2 2 3 4 5
7 6 6 5 6 5 4 5 3 1 6 5 6 11 9 8 6 3 2 5 6 4 2 2 2 1 3 4 4 3 1 1 3 4 5 6 7 8 9 10 11 12 13 14 14 14 13 11 7 5 5 3 1 1 3 6 8 9 11 12 11 9 8 7 6 5 5 7 7 7 6 4 2 2 4 6 6 5 3 2 2 2 3 4 5 6
11 10 9 7 5 2 2 4 4 3 3 2 5 11 10 7 5 4 6 9 9 8 4 1 1 2 4 4 3 2 2 3 4 5 6 6 7 8 10 11 12 13 13 13 13 12 11 10 6 4 4 2 1 2 4 7 9 11 12 11 10 9 8 6 5 5 6 7 8 7 6 4 3 5 7 8 7 5 3 1 1 3 4 5 6 6
14 13 11 9 6 3 3 4 4 2 1 0 3 8 12 10 8 6 9 12 10 9 6 3 2 3 3 3 3 2 5 6 5 6 8 8 8 9 11 13 14 14 13 12 11 10 9 8 5 3 3 1 2 2 4 7 9 10 11 10 9 8 7 5 5 7 8 9 9 8 6 4 3 5 7 8 8 6 3 1 1 3 4 5 6 6
15 13 12 11 10 8 7 5 2 3 4 2 1 4 10 13 12 9 10 11 9 7 7 5 4 3 2 2 2 4 6 7 7 7 8 9 10 11 13 14 15 14 13 11 9 8 7 6 3 3 3 1 2 3 4 5 8 9 9 8 8 8 6 5 6 7 8 9 9 8 6 3 2 3 5 7 8 7 4 2 1 2 3 4 5 5
14 14 13 13 13 12 11 9 8 9 8 6 4 5 7 12 13 11 9 8 8 8 7 6 4 4 3 2 3 5 7 7 7 8 8 10 12 13 14 14 14 14 12 9 8 6 5 3 2 3 2 2 3 3 3 4 6 8 8 8 8 7 5 5 6 7 7 8 8 7 6 3 1 1 4 7 8 9 7 4 2 2 3 4 5 6
13 14 15 16 16 15 14 13 13 15 15 14 13 13 11 10 11 12 10 8 10 10 7 5 5 5 3 3 4 6 8 8 8 8 10 12 13 14 14 14 13 13 10 8 7 5 3 2 2 3 3 3 3 4 4 4 5 7 8 8 8 7 5 5 6 6 6 7 7 7 6 5 4 4 5 7 10 11 10 7 5 4 4 5 6 7
9 9 11 15 16 15 16 15 13 14 16 16 17 16 13 11 12 12 11 10 10 10 7 4 4 5 5 5 6 8 9 8 8 9 11 13 14 14 14 13 12 11 9 8 6 4 3 3 3 3 3 4 4 5 5 5 5 6 8 9 8 7 6 5 5 6 6 6 7 8 7 6 6 6 7 9 11 11 11 10 7 6 6 6 7 8
6 5 5 7 9 11 13 13 8 7 10 12 13 12 12 14 15 13 11 11 11 9 6 3 5 6 7 7 8 9 9 8 9 11 13 14 14 14 14 13 11 10 9 7 6 4 3 3 4 4 4 5 5 6 5 5 6 7 8 9 9 9 7 6 6 6 6 7 9 9 9 9 8 8 9 10 11 12 12 13 11 9 8 8 8 8
5 5 5 4 3 5 9 10 7 7 10 10 10 10 9 10 11 12 12 11 9 6 3 4 7 8 8 9 9 9 9 9 10 12 14 15 15 14 13 12 9 8 8 7 5 4 4 4 5 5 5 6 7 7 7 7 7 8 9 9 10 10 9 7 7 7 7 9 10 11 11 10 10 10 10 10 10 11 13 14 13 11 10 9 9 9
4 5 6 5 4 6 9 9 8 10 13 10 8 7 7 5 7 10 11 9 5 3 4 7 8 8 9 10 10 9 9 9 11 13 15 15 15 14 12 10 8 8 8 7 6 4 4 5 5 6 6 7 8 8 9 9 9 10 9 9 10 11 10 9 8 7 8 10 11 12 12 11 11 11 10 9 9 11 13 14 13 12 10 10 10 9
6 6 6 6 6 9 12 12 10 10 11 9 7 6 6 6 6 7 7 5 3 4 6 8 9 9 10 10 10 9 9 11 13 15 15 15 14 13 10 8 7 7 7 7 6 5 5 6 6 7 7 8 9 9 10 11 11 11 10 10 11 12 12 10 9 8 9 11 12 12 12 12 11 10 9 9 10 11 13 13 12 11 9 9 9 9
8 8 7 6 7 9 10 11 10 9 8 8 7 6 6 6 7 6 4 2 3 6 8 8 9 9 10 10 9 9 10 12 14 15 15 14 13 11 9 7 7 7 7 6 6 5 5 5 6 7 7 8 9 10 11 12 13 13 11 11 12 13 13 11 9 8 9 12 13 13 13 12 11 11 10 10 11 12 13 13 11 10 8 8 9 9
9 9 9 9 10 11 10 9 8 8 8 8 8 9 8 7 6 4 2 4 6 7 8 9 8 9 10 10 8 9 11 13 14 15 14 13 11 9 8 7 7 6 6 6 5 5 4 4 5 6 7 8 9 10 11 12 13 13 13 13 13 14 14 12 10 9 10 12 13 14 14 13 12 11 10 10 12 13 14 14 12 9 8 8 8 9
10 10 9 9 9 11 11 9 8 11 13 13 13 12 10 7 4 3 4 6 8 8 8 9 9 10 11 10 8 10 12 14 14 14 13 11 9 8 7 7 7 6 6 5 5 5 5 5 5 6 7 8 9 10 11 11 13 13 13 13 14 14 14 13 11 10 11 12 14 14 14 12 11 10 9 11 13 15 17 16 13 10 8 8 8 9
9 10 10 8 7 8 10 10 11 14 15 13 12 11 9 7 4 0 2 5 7 8 8 9 10 11 11 10 10 12 13 14 14 13 11 9 9 8 7 7 6 6 6 6 5 6 6 6 6 6 7 8 8 9 10 11 12 12 13 13 14 14 15 14 12 11 11 12 14 14 13 12 11 11 11 13 15 17 19 18 14 10 9 9 9 9
10 11 10 7 6 8 10 11 12 14 12 11 12 11 9 7 4 1 2 4 6 8 9 10 11 11 11 11 12 13 14 14 13 11 9 9 9 8 8 7 6 6 7 7 7 7 6 6 5 6 7 8 8 9 10 10 11 12 12 13 14 15 15 14 13 11 11 12 13 13 13 13 12 13 15 15 16 17 19 17 13 10 9 9 9 9
Wind_Direction
247 250 250 252 255 259 261 264 275 286 295 305 309 307 307 308 310 323 331 326 315 301 293 286 287 301 309 314 320 307 294 283 279 281 281 282 285 284 285 286 282 272 260 253 249 242 231 229 232 234 239 243 250 257 261 262 261 264 269 274 277 274 278 293 301 301 293 280 275 276 280 284 291 299 305 307 309 311 315 319 317 317 327 333 334 340
244 248 246 245 250 257 260 263 275 283 287 294 298 301 302 302 310 324 332 327 309 300 302 296 291 300 308 300 306 299 291 286 282 279 278 279 280 281 281 282 285 276 263 256 253 254 250 245 247 249 250 252 256 260 260 258 252 251 255 261 266 270 276 285 291 294 287 279 279 280 280 282 290 299 301 300 299 301 308 314 314 317 329 335 337 344
242 246 245 244 249 256 263 270 278 279 279 284 290 296 297 300 312 322 331 326 307 301 308 303 294 303 311 292 286 286 287 295 293 281 274 272 268 267 269 272 278 276 269 266 264 266 268 269 268 269 272 271 267 263 259 254 248 247 248 251 258 265 271 276 280 284 282 281 283 283 278 274 277 282 283 283 283 289 299 306 310 317 329 335 335 339
246 247 249 253 254 259 264 267 270 269 270 276 285 292 291 299 313 318 322 314 300 298 305 310 304 306 312 297 294 298 292 292 288 276 266 259 254 252 257 259 259 264 269 271 271 272 275 278 281 286 288 285 278 275 271 266 259 254 251 249 252 258 262 263 265 271 276 279 280 275 270 267 265 265 270 277 282 288 294 300 310 320 328 332 329 331
256 251 255 258 250 254 260 255 261 270 273 276 281 288 293 304 314 314 311 300 293 298 309 319 313 311 318 311 309 310 298 293 287 275 266 255 245 243 249 250 248 257 266 270 272 274 277 280 285 287 286 283 282 285 285 279 270 263 258 251 248 252 255 256 256 259 264 269 271 267 267 269 270 272 278 283 286 289 293 297 308 318 323 322 318 323
267 255 259 261 243 251 266 266 273 286 294 282 275 291 306 312 316 314 306 288 287 302 322 327 308 312 320 317 316 316 307 306 297 281 276 259 243 241 243 246 250 257 264 269 271 273 276 280 284 285 285 286 287 290 291 285 274 263 257 252 250 251 253 253 252 252 254 258 261 262 268 274 277 279 280 282 285 286 289 296 304 309 311 312 313 319
275 257 256 266 256 265 278 280 281 298 306 289 281 307 317 314 314 313 306 290 290 307 322 316 282 301 317 320 322 319 314 318 315 308 305 275 245 239 241 248 254 258 264 271 273 273 275 279 282 286 289 291 291 290 288 282 274 265 260 257 255 254 254 253 251 249 248 249 252 255 262 271 278 283 282 279 282 284 286 291 298 301 300 303 311 318
276 274 269 284 285 285 284 278 279 295 299 290 298 320 317 316 315 307 302 298 300 309 313 315 290 278 307 321 326 320 318 323 327 334 333 297 257 241 241 249 253 258 266 270 275 277 278 278 281 286 291 293 290 285 281 278 275 270 266 263 260 258 258 257 255 252 249 246 246 249 256 265 270 276 279 276 276 282 287 290 289 290 292 295 304 312
274 281 284 289 287 286 278 266 277 290 288 283 300 312 310 315 311 299 299 300 301 306 308 327 312 248 293 321 329 326 322 320 318 330 345 297 249 238 237 243 249 257 264 269 276 280 282 282 282 285 287 287 283 279 279 279 274 269 266 265 264 262 262 262 260 258 254 249 244 243 247 254 260 266 272 270 274 282 287 288 283 281 283 286 292 300
271 276 280 281 280 281 269 261 279 284 279 280 289 298 301 305 300 295 299 297 296 298 307 350 346 241 295 320 329 338 329 321 317 331 340 219 202 218 229 237 248 258 266 272 275 278 282 282 282 283 281 281 280 278 278 276 274 272 269 268 269 269 268 267 265 262 259 253 248 245 245 247 251 259 268 269 272 280 286 289 283 278 278 279 284 292
268 270 271 272 276 280 268 264 275 273 271 277 279 286 292 296 294 292 291 290 292 293 321 7 352 248 282 315 326 342 340 329 325 339 346 207 189 207 227 238 254 267 274 276 276 278 280 279 280 282 282 283 282 279 279 278 277 276 273 272 272 272 271 270 269 266 262 256 250 245 243 243 246 256 269 276 277 278 284 290 285 279 278 277 279 285
265 267 270 273 275 278 272 265 266 265 265 268 272 280 287 293 295 290 284 278 276 284 352 2 353 285 251 296 314 328 340 337 330 339 357 184 193 215 230 241 258 271 277 278 281 280 278 277 278 279 281 282 281 282 284 283 282 279 278 276 273 273 273 272 272 268 261 256 250 246 242 239 238 247 261 272 278 276 279 286 285 279 277 278 281 283
268 271 276 277 273 268 264 260 259 262 264 264 269 274 275 289 308 292 282 276 263 274 353 2 347 311 280 293 307 318 339 351 346 344 346 189 206 223 231 241 249 256 265 274 280 279 275 274 274 276 278 279 281 285 285 286 287 286 284 280 276 274 272 271 272 271 266 257 246 241 239 238 235 232 241 253 264 269 275 283 284 279 274 275 282 284
278 282 277 272 268 258 253 256 258 264 267 267 272 269 251 237 26 299 276 298 284 287 4 345 326 312 299 302 307 318 342 357 1 352 247 213 227 230 236 246 254 258 260 267 274 275 275 274 274 275 274 275 279 280 281 284 285 285 284 281 278 274 271 270 269 271 274 270 259 242 230 231 232 223 223 232 243 256 272 280 279 277 274 273 280 282
277 284 283 271 261 245 242 249 260 274 274 272 272 266 249 233 217 260 258 265 277 300 333 321 312 300 296 304 307 318 332 345 353 323 257 248 246 242 249 256 265 269 270 272 273 274 274 273 274 274 273 274 274 273 277 278 278 280 279 278 279 279 278 276 272 271 273 274 274 259 236 228 226 220 221 227 232 243 264 273 270 271 273 273 278 280
264 271 293 316 252 229 242 256 269 274 272 270 260 248 246 243 238 256 269 273 283 308 307 289 289 291 289 286 289 304 313 314 304 279 266 265 268 271 271 273 280 284 286 286 283 280 276 274 275 276 278 279 276 276 277 277 278 277 277 281 286 286 282 278 273 270 266 265 274 271 249 232 224 223 231 235 235 239 255 266 265 266 273 274 274 275
257 269 300 334 286 255 264 270 273 268 259 256 249 241 242 242 242 258 275 284 291 308 288 278 288 295 297 288 270 266 275 284 274 260 260 272 290 302 304 311 315 313 312 306 300 294 287 283 281 281 283 282 280 279 278 281 283 282 288 290 289 288 283 276 270 264 254 251 268 277 259 241 237 238 238 243 244 246 249 253 257 261 266 270 270 268
261 272 288 327 340 346 291 293 303 268 244 236 247 256 249 238 243 253 265 317 19 288 277 275 280 288 295 283 246 242 249 262 260 255 270 294 315 329 333 336 330 323 320 315 313 308 300 293 287 284 284 281 280 280 278 281 280 281 287 286 292 293 285 279 272 257 247 248 255 268 258 241 240 241 241 248 245 243 247 247 250 251 253 262 266 260
257 265 274 283 339 18 11 347 4 349 227 224 236 255 241 229 241 238 233 291 329 267 283 279 277 281 279 263 247 241 245 253 257 272 303 321 331 332 329 326 319 315 316 317 319 317 311 305 297 290 289 284 283 282 279 283 282 281 282 286 301 294 280 289 277 247 232 241 238 244 254 241 237 243 249 253 238 230 247 247 243 239 240 255 260 255
248 253 269 267 293 358 9 22 14 15 48 207 210 216 235 253 267 245 236 256 253 220 276 291 289 282 278 271 257 246 248 257 267 286 307 319 331 330 321 315 311 313 317 320 322 319 313 311 305 297 297 299 299 295 294 299 296 294 293 298 305 289 282 328 316 245 206 218 219 231 249 242 241 245 244 241 228 237 258 248 234 224 227 242 250 251
241 243 256 255 262 299 312 348 349 344 352 275 230 243 259 270 277 270 262 262 255 217 169 192 283 282 285 286 268 253 250 258 270 281 299 314 321 318 309 308 312 316 320 322 322 316 311 309 307 306 310 310 308 308 310 310 303 298 298 299 307 304 298 336 354 27 83 78 193 233 239 236 237 237 231 227 231 261 258 228 207 206 216 231 239 245
233 236 245 254 269 282 286 306 317 318 339 44 64 20 321 294 285 272 266 267 257 239 209 188 252 280 289 293 277 258 239 239 273 285 298 305 306 304 303 311 319 321 324 325 320 315 312 313 314 318 322 319 317 318 314 307 300 300 301 298 308 316 293 283 339 26 53 27 349 229 218 221 223 219 218 218 220 237 219 178 190 211 219 226 232 239
229 235 244 258 271 278 283 296 300 295 303 101 84 38 18 360 303 252 250 266 248 232 232 221 242 285 293 283 270 250 225 233 258 273 288 294 297 303 312 322 325 326 329 328 323 324 326 324 320 321 325 327 328 328 319 308 307 310 305 303 319 322 288 278 302 29 65 32 17 183 194 209 214 209 208 205 186 176 175 183 204 219 222 223 230 243
214 224 237 258 273 281 288 295 284 248 220 59 36 22 12 359 325 261 257 265 252 231 222 204 226 276 278 264 250 225 209 221 247 271 285 293 301 312 321 325 325 327 335 337 339 340 336 328 320 318 323 328 332 336 331 322 322 325 311 307 332 341 289 273 261 141 76 60 79 149 172 182 184 180 183 182 165 162 187 206 211 220 223 221 240 263
199 213 225 246 278 294 298 297 230 206 250 3 11 10 358 344 323 287 271 259 251 245 229 205 227 264 257 239 217 203 204 223 268 283 286 297 312 321 325 324 324 331 341 349 350 343 335 333 327 321 323 328 333 336 336 334 334 335 324 316 331 347 246 224 216 172 98 84 78 93 150 167 164 156 145 145 164 179 199 209 214 224 223 221 256 280
159 199 213 223 240 278 304 320 346 337 338 347 347 347 350 342 314 293 287 249 245 256 235 216 247 264 232 203 193 195 211 246 281 289 296 309 320 327 331 330 330 336 343 344 343 339 336 337 334 327 326 327 331 333 335 339 339 333 325 323 335 354 165 172 192 181 137 110 88 94 129 150 151 158 157 154 172 185 198 213 224 227 218 238 272 293
135 156 205 231 254 260 297 324 325 337 343 337 333 340 350 342 303 283 285 255 266 283 243 235 260 244 192 178 190 208 236 277 292 299 307 312 318 331 344 340 338 343 344 338 340 340 336 336 334 331 329 327 328 329 330 337 340 331 323 323 335 9 133 142 171 173 158 144 123 110 122 130 132 155 173 178 178 183 204 223 229 214 210 272 287 302
162 173 188 244 283 277 313 331 301 320 341 332 328 335 343 345 310 274 271 268 4 5 261 229 193 147 151 166 211 232 276 300 299 300 301 302 311 341 351 345 343 345 343 339 343 344 338 334 333 332 331 329 326 324 327 337 346 338 325 323 333 23 82 90 144 165 165 159 156 145 136 138 153 166 168 171 177 191 212 222 213 190 283 292 298 301
158 142 143 104 22 271 11 360 294 299 322 324 327 332 337 353 15 136 104 87 70 47 20 147 123 111 115 171 233 278 302 301 295 293 296 297 312 338 347 345 342 342 342 341 342 343 338 333 332 332 333 331 327 325 328 339 354 0 350 322 327 22 66 93 126 147 156 157 160 164 155 146 161 174 177 179 185 198 212 212 237 319 313 313 308 290
154 134 122 98 106 143 113 345 303 292 304 318 322 319 317 12 84 105 103 97 98 101 105 123 132 134 151 172 222 313 311 303 306 310 309 307 317 336 345 346 344 343 342 340 337 338 336 331 330 331 332 329 328 328 330 338 353 15 69 126 145 104 97 107 117 126 136 142 145 156 160 155 161 175 185 183 181 201 221 245 330 323 316 308 285 253
161 159 93 42 136 213 255 303 293 282 295 315 304 248 160 119 112 113 108 100 102 107 111 128 156 182 182 166 330 333 327 328 336 327 310 308 325 339 342 344 347 346 341 337 336 334 333 331 329 330 329 326 327 330 332 339 352 16 75 115 129 125 121 119 115 115 124 131 136 147 157 162 166 170 173 173 183 219 250 299 316 306 302 281 247 230
137 153 46 349 300 282 318 347 316 272 275 294 206 155 130 117 120 118 110 104 98 93 102 127 155 177 180 173 347 339 334 334 326 311 300 308 327 335 339 345 348 346 340 335 334 332 330 330 330 329 324 320 325 333 339 346 356 26 77 110 125 127 125 122 115 112 117 124 135 146 153 157 159 159 161 175 217 259 294 312 311 314 303 251 231 227
81 86 42 354 332 354 1 345 334 247 193 332 154 144 134 137 143 126 111 103 87 77 87 111 132 154 173 208 338 325 306 307 306 302 304 322 329 332 339 344 345 343 338 333 332 331 329 330 332 329 319 315 324 338 352 5 23 74 109 127 134 133 128 119 111 110 114 122 135 143 146 149 150 156 176 231 272 295 314 317 318 320 297 247 236 235
23 26 22 6 345 347 355 360 6 67 24 349 168 158 151 154 151 124 92 72 58 61 73 93 113 129 157 268 316 290 278 286 294 302 312 324 330 333 337 342 343 341 336 332 331 328 326 330 335 326 312 313 327 342 9 50 90 123 135 140 140 136 128 118 111 113 122 133 141 143 145 149 154 175 240 281 300 317 324 319 313 306 275 244 233 228
288 328 352 1 349 336 346 20 48 68 350 324 203 179 163 160 162 153 94 38 28 32 77 112 124 133 279 305 304 287 272 271 286 307 324 325 330 334 336 339 340 339 336 334 331 326 324 330 336 319 305 311 326 345 71 112 128 141 149 148 143 136 127 120 115 118 129 138 143 145 147 150 154 181 309 330 339 340 333 316 300 276 229 218 218 218
270 284 301 326 338 331 348 28 50 19 347 331 211 187 177 181 191 204 303 344 345 325 274 171 155 271 302 308 307 292 283 304 311 324 333 329 328 332 337 338 336 336 337 334 329 325 322 327 332 312 297 306 309 149 135 135 141 148 154 152 147 141 135 128 122 126 137 141 145 148 147 141 123 55 22 16 13 8 360 332 270 221 206 210 213 215
260 268 275 289 308 307 311 347 344 320 338 334 213 196 193 213 244 274 307 319 317 304 289 237 230 270 288 307 315 330 6 6 347 332 331 330 330 333 337 336 332 334 337 334 329 326 322 324 328 308 290 292 162 150 143 142 144 150 155 157 154 151 147 140 136 143 149 148 151 153 148 134 88 41 29 23 19 18 24 21 231 213 210 210 211 213
254 260 262 265 257 230 262 313 344 327 284 124 217 213 214 234 254 269 296 308 307 294 283 268 261 268 288 313 327 8 11 2 348 334 329 330 334 336 335 332 331 334 337 334 331 329 322 321 320 299 288 268 164 153 148 147 147 150 155 158 161 163 160 153 151 155 156 156 156 156 149 128 67 31 20 15 13 12 13 25 216 221 220 217 214 215
246 249 250 252 243 232 253 269 232 246 254 204 201 231 227 238 249 259 281 298 312 302 277 264 270 292 317 329 340 4 3 353 343 337 332 332 336 336 333 330 330 333 335 335 335 332 324 318 303 277 275 239 172 155 158 159 154 155 159 162 165 174 177 168 162 162 160 159 159 158 153 137 77 18 357 354 357 357 351 341 254 231 235 235 233 229
234 238 238 243 243 240 248 250 241 252 252 228 243 282 263 250 250 249 257 285 325 324 288 263 277 305 332 353 352 354 352 345 340 338 336 337 337 335 332 330 330 331 333 338 341 335 325 313 275 256 250 216 183 167 170 176 172 169 172 170 172 186 193 177 167 166 162 161 165 167 168 169 183 308 325 332 338 343 343 331 293 264 259 256 251 244
226 233 235 239 242 242 242 244 249 255 254 253 266 280 283 267 244 236 248 284 317 315 288 266 287 310 345 5 356 350 345 342 338 337 338 338 334 333 333 330 328 330 334 342 346 337 318 289 254 250 240 207 190 178 176 188 194 188 185 184 188 198 201 188 177 171 166 167 175 183 191 201 223 259 296 313 321 331 339 333 305 280 271 266 260 254
215 222 230 232 233 234 234 236 248 258 260 268 275 274 272 262 243 245 269 294 303 296 281 279 308 333 359 3 353 345 341 341 338 335 337 335 331 331 332 329 327 330 335 341 341 326 294 261 244 239 227 207 194 185 183 196 205 201 197 197 199 203 205 201 193 185 181 184 191 200 211 222 236 256 282 300 311 324 339 341 325 291 270 264 259 253
218 220 228 223 223 226 220 214 225 254 263 276 282 275 269 264 259 263 277 285 287 286 281 304 343 352 354 350 345 340 338 339 335 332 333 330 328 331 332 329 328 331 332 335 334 315 283 254 241 231 215 204 198 190 191 203 208 206 205 204 205 207 209 210 211 209 203 200 202 209 219 230 241 255 273 290 306 320 329 330 324 306 279 265 258 252
232 243 244 223 212 222 210 196 194 224 242 262 279 280 281 276 265 263 266 274 285 290 298 337 349 345 339 337 338 338 338 334 329 328 328 326 327 332 333 330 329 328 326 328 325 301 270 250 242 231 213 206 202 197 199 207 209 208 210 211 210 210 211 216 223 225 216 209 209 214 223 234 245 259 275 291 305 315 316 313 310 304 286 271 263 258
228 246 250 239 235 241 235 227 217 221 232 245 256 261 271 273 256 255 262 273 288 316 348 350 343 334 329 330 334 336 333 328 325 325 323 324 329 333 332 330 330 326 321 322 318 293 262 245 238 229 216 209 207 203 204 210 212 213 217 217 213 211 214 220 228 229 220 213 212 217 227 239 251 263 280 294 301 311 316 311 302 296 287 276 269 264
229 243 261 273 266 250 244 245 235 218 221 230 225 225 249 257 242 241 250 259 293 351 357 350 337 330 330 332 335 333 325 322 323 322 322 326 331 332 332 332 329 323 319 320 313 290 263 245 238 233 222 214 211 210 211 214 217 221 223 220 216 215 216 220 227 227 220 215 216 223 233 242 253 264 275 282 287 303 320 320 306 292 285 276 268 265
240 248 257 268 258 241 236 238 229 206 198 209 206 194 201 205 194 195 218 272 350 357 349 342 337 334 335 337 334 325 319 320 321 321 323 328 331 331 333 334 328 321 320 316 305 286 263 242 234 232 226 220 217 217 217 218 222 227 230 226 222 219 219 223 229 227 223 221 222 227 234 242 252 261 269 278 288 303 318 321 311 296 287 278 271 271
237 243 246 247 239 232 234 235 219 191 169 162 155 145 142 141 137 128 54 359 356 352 344 340 339 336 336 336 328 318 319 320 320 322 326 329 332 334 335 335 330 323 320 312 293 272 252 235 228 228 225 223 224 224 224 224 226 232 237 235 230 224 220 223 228 226 225 224 224 227 234 241 251 261 272 286 295 302 310 314 309 297 288 281 277 276
227 234 238 241 234 228 228 220 183 151 138 134 131 127 119 106 92 66 18 355 345 345 344 339 336 335 334 330 323 320 322 319 319 324 328 329 332 334 332 333 330 322 317 308 285 265 251 239 234 229 223 222 225 227 229 229 232 236 238 238 237 231 223 222 226 228 228 228 228 231 236 242 251 264 279 288 293 297 303 307 304 292 284 280 277 275
226 235 233 235 227 215 215 204 165 138 128 128 130 132 128 117 110 93 344 342 335 339 341 334 331 332 330 326 325 324 321 318 320 325 328 329 333 332 327 329 327 316 310 302 284 271 260 251 245 241 236 231 227 226 228 231 235 239 239 238 237 233 225 222 225 228 230 231 234 238 241 245 254 268 280 284 285 291 298 301 297 286 279 279 277 273
232 237 232 226 202 188 192 185 157 138 132 135 139 148 157 148 139 194 296 327 328 330 332 330 331 334 330 326 326 323 318 318 321 324 327 329 331 328 325 325 319 307 301 298 291 283 274 265 260 255 252 248 241 236 232 231 235 239 240 236 233 230 227 224 226 228 230 231 235 242 245 249 259 271 276 277 281 290 298 299 290 277 274 276 276 272
Height
3201 3201 3200 3200 3201 3203 3204 3204 3203 3203 3203 3202 3201 3199 3198 3197 3194 3192 3193 3192 3191 3191 3189 3188 3187 3186 3186 3186 3186 3186 3186 3186 3186 3187 3187 3188 3187 3187 3187 3187 3187 3188 3188 3187 3186 3187 3187 3187 3188 3188 3188 3188 3189 3189 3189 3189 3190 3191 3192 3192 3192 3192 3193 3194 3194 3195 3195 3195 3194 3194 3194 3193 3193 3193 3193 3193 3193 3193 3193 3193 3193 3193 3192 3192 3191 3190
3200 3198 3197 3199 3201 3202 3202 3202 3202 3202 3202 3201 3200 3199 3197 3196 3194 3192 3191 3191 3190 3190 3188 3187 3187 3186 3185 3186 3186 3185 3184 3184 3184 3185 3185 3186 3186 3186 3185 3186 3186 3187 3187 3187 3186 3186 3187 3188 3187 3187 3187 3187 3188 3188 3188 3188 3189 3189 3190 3191 3191 3191 3192 3192 3193 3193 3193 3193 3193 3192 3192 3192 3192 3192 3192 3193 3192 3192 3192 3192 3192 3192 3191 3190 3190 3189
3197 3194 3195 3199 3200 3200 3200 3201 3201 3200 3201 3200 3199 3199 3196 3195 3194 3192 3191 3190 3189 3188 3188 3187 3186 3185 3185 3184 3184 3184 3182 3182 3182 3182 3183 3184 3184 3184 3184 3184 3184 3185 3185 3186 3187 3186 3187 3187 3187 3187 3187 3187 3187 3187 3187 3187 3187 3188 3189 3189 3189 3190 3190 3191 3191 3192 3192 3191 3191 3191 3190 3190 3190 3191 3191 3191 3191 3190 3191 3191 3191 3190 3190 3190 3189 3188
3194 3193 3196 3198 3198 3198 3199 3199 3199 3199 3199 3199 3198 3198 3196 3194 3194 3191 3190 3190 3189 3188 3187 3186 3185 3184 3184 3183 3183 3182 3181 3180 3180 3180 3180 3180 3181 3182 3182 3182 3182 3182 3184 3185 3186 3186 3186 3186 3187 3187 3187 3186 3186 3186 3186 3186 3186 3187 3188 3188 3188 3188 3188 3189 3190 3190 3190 3190 3190 3189 3189 3189 3189 3189 3189 3189 3189 3189 3189 3189 3189 3189 3189 3189 3189 3188
3192 3193 3196 3196 3196 3197 3197 3197 3198 3198 3197 3197 3197 3196 3195 3194 3193 3191 3190 3189 3188 3187 3186 3186 3184 3183 3183 3182 3181 3180 3179 3178 3178 3177 3177 3178 3179 3180 3180 3180 3180 3181 3182 3184 3185 3185 3185 3185 3185 3185 3186 3185 3185 3185 3185 3185 3185 3186 3186 3186 3186 3185 3185 3186 3187 3188 3188 3188 3188 3188 3187 3187 3187 3187 3187 3187 3188 3188 3188 3188 3188 3188 3188 3188 3188 3187
3191 3192 3194 3194 3195 3196 3195 3196 3196 3196 3196 3195 3195 3195 3194 3193 3192 3190 3189 3188 3187 3186 3186 3185 3184 3182 3180 3180 3179 3178 3177 3176 3176 3175 3175 3176 3177 3178 3178 3178 3179 3180 3181 3182 3183 3184 3184 3184 3184 3184 3184 3184 3184 3183 3183 3183 3183 3184 3184 3184 3183 3183 3183 3183 3184 3185 3185 3186 3186 3186 3186 3185 3185 3185 3185 3185 3186 3186 3186 3186 3186 3187 3187 3187 3187 3186
3190 3191 3192 3193 3194 3194 3194 3194 3194 3195 3194 3193 3194 3193 3192 3192 3190 3189 3188 3187 3186 3186 3185 3185 3185 3182 3179 3177 3177 3177 3175 3174 3174 3174 3174 3174 3175 3176 3177 3178 3178 3178 3179 3180 3181 3182 3183 3183 3182 3182 3182 3183 3182 3182 3181 3181 3181 3182 3182 3181 3181 3180 3180 3181 3181 3182 3182 3183 3183 3183 3183 3183 3183 3183 3183 3183 3184 3184 3184 3184 3185 3185 3186 3186 3186 3185
3190 3191 3192 3192 3192 3192 3192 3192 3193 3194 3193 3192 3193 3192 3191 3191 3190 3189 3188 3187 3186 3185 3184 3184 3184 3183 3180 3176 3176 3175 3173 3173 3173 3173 3173 3173 3173 3174 3176 3176 3176 3177 3178 3178 3179 3180 3181 3181 3181 3181 3181 3181 3181 3180 3179 3179 3180 3180 3180 3179 3179 3178 3178 3178 3179 3179 3179 3180 3180 3180 3181 3181 3181 3182 3182 3182 3182 3182 3183 3183 3184 3184 3184 3184 3184 3185
3190 3190 3191 3191 3190 3190 3190 3191 3192 3192 3192 3192 3192 3191 3191 3190 3189 3188 3187 3186 3185 3184 3183 3183 3183 3183 3180 3176 3175 3174 3172 3171 3171 3171 3171 3171 3171 3172 3173 3174 3174 3175 3176 3177 3177 3177 3178 3178 3179 3179 3179 3179 3179 3178 3178 3178 3178 3178 3178 3178 3178 3177 3177 3177 3177 3177 3177 3177 3177 3178 3178 3179 3179 3180 3180 3181 3181 3181 3181 3182 3183 3183 3183 3183 3183 3184
3189 3189 3189 3189 3188 3188 3189 3190 3191 3191 3191 3191 3191 3190 3190 3190 3189 3188 3186 3185 3184 3183 3182 3182 3182 3182 3179 3175 3174 3173 3171 3170 3170 3170 3170 3169 3170 3171 3171 3172 3173 3174 3175 3175 3175 3175 3175 3176 3176 3177 3177 3177 3177 3177 3177 3176 3176 3176 3177 3176 3176 3176 3175 3175 3176 3176 3175 3176 3176 3176 3177 3177 3178 3178 3178 3179 3180 3180 3180 3181 3182 3182 3182 3182 3183 3183
3187 3188 3187 3187 3187 3187 3188 3188 3189 3189 3190 3190 3190 3189 3189 3189 3188 3187 3185 3184 3182 3181 3181 3182 3181 3181 3179 3175 3173 3173 3172 3170 3169 3169 3169 3168 3169 3170 3170 3171 3172 3173 3173 3173 3173 3173 3173 3174 3174 3175 3175 3176 3176 3176 3175 3175 3174 3174 3174 3174 3173 3173 3173 3173 3173 3173 3173 3174 3174 3175 3175 3176 3176 3177 3176 3177 3178 3178 3178 3179 3180 3180 3180 3181 3181 3182
3186 3186 3185 3185 3185 3186 3186 3186 3187 3187 3188 3189 3189 3189 3189 3188 3187 3185 3183 3182 3181 3181 3181 3181 3180 3180 3179 3176 3174 3173 3173 3172 3170 3169 3169 3168 3169 3170 3170 3170 3171 3172 3172 3171 3171 3171 3171 3172 3172 3173 3173 3174 3174 3174 3174 3173 3172 3171 3171 3170 3170 3170 3169 3169 3170 3171 3170 3171 3172 3173 3173 3174 3175 3175 3175 3174 3175 3176 3176 3177 3178 3178 3178 3179 3179 3180
3184 3184 3183 3183 3183 3184 3185 3184 3185 3186 3187 3187 3187 3188 3188 3188 3187 3185 3183 3182 3181 3180 3180 3180 3180 3179 3178 3176 3174 3173 3173 3172 3171 3170 3169 3169 3170 3170 3170 3170 3170 3170 3170 3169 3169 3169 3170 3170 3170 3170 3171 3171 3172 3172 3172 3170 3169 3168 3167 3167 3166 3166 3166 3166 3167 3168 3168 3169 3170 3171 3171 3171 3172 3173 3174 3173 3173 3173 3174 3175 3176 3176 3176 3177 3178 3178
3182 3181 3181 3181 3181 3182 3183 3183 3184 3185 3185 3185 3185 3186 3187 3187 3188 3187 3185 3184 3181 3179 3179 3180 3179 3178 3177 3176 3175 3174 3173 3172 3171 3171 3170 3170 3170 3170 3170 3170 3170 3170 3169 3169 3168 3168 3168 3168 3168 3168 3168 3169 3170 3170 3169 3168 3167 3166 3164 3163 3163 3163 3162 3162 3162 3163 3165 3167 3169 3169 3168 3168 3169 3169 3170 3171 3171 3171 3172 3173 3174 3175 3175 3175 3176 3176
3182 3180 3179 3179 3179 3180 3181 3182 3183 3183 3183 3183 3184 3184 3184 3184 3186 3186 3184 3182 3180 3179 3179 3179 3178 3177 3176 3176 3175 3174 3174 3172 3171 3171 3171 3171 3170 3170 3170 3170 3170 3169 3169 3168 3168 3168 3167 3166 3166 3166 3165 3166 3167 3167 3167 3165 3164 3162 3161 3160 3160 3159 3159 3158 3158 3157 3157 3160 3165 3168 3168 3165 3165 3166 3166 3168 3169 3169 3170 3171 3171 3173 3174 3174 3175 3175
3181 3180 3178 3178 3179 3179 3180 3181 3181 3182 3181 3181 3181 3182 3182 3182 3183 3182 3181 3180 3180 3180 3179 3178 3177 3176 3176 3176 3175 3175 3174 3173 3172 3172 3171 3171 3171 3171 3171 3170 3170 3169 3169 3168 3167 3166 3165 3165 3164 3163 3163 3164 3164 3165 3164 3163 3161 3159 3158 3158 3156 3155 3154 3153 3152 3151 3151 3153 3157 3163 3167 3165 3162 3163 3164 3165 3166 3167 3168 3170 3171 3172 3173 3173 3173 3174
3180 3178 3177 3178 3178 3178 3179 3179 3179 3180 3179 3179 3179 3179 3180 3181 3181 3181 3180 3180 3180 3180 3178 3177 3176 3175 3175 3175 3174 3174 3173 3173 3172 3172 3172 3171 3171 3171 3171 3171 3170 3169 3168 3167 3166 3165 3163 3162 3161 3160 3160 3161 3162 3162 3161 3160 3159 3157 3156 3154 3153 3152 3150 3148 3145 3144 3146 3148 3151 3156 3161 3162 3160 3161 3162 3163 3164 3166 3166 3168 3170 3171 3172 3172 3173 3172
3179 3177 3176 3177 3177 3177 3178 3178 3178 3177 3177 3178 3178 3178 3179 3179 3180 3180 3180 3180 3180 3180 3177 3175 3175 3174 3174 3174 3174 3174 3173 3173 3173 3172 3172 3172 3172 3171 3171 3170 3169 3168 3168 3166 3165 3163 3161 3160 3158 3157 3158 3158 3160 3160 3158 3158 3156 3155 3153 3151 3151 3149 3145 3142 3135 3130 3136 3144 3149 3152 3155 3157 3158 3158 3160 3161 3162 3164 3165 3166 3168 3170 3171 3172 3172 3171
3178 3177 3175 3175 3177 3177 3177 3177 3176 3175 3175 3176 3177 3177 3178 3178 3178 3179 3180 3179 3180 3181 3178 3175 3174 3174 3173 3173 3173 3173 3173 3173 3173 3172 3172 3172 3171 3171 3170 3170 3169 3168 3167 3166 3164 3161 3159 3158 3156 3155 3156 3156 3158 3157 3156 3155 3153 3151 3150 3149 3149 3145 3141 3141 3126 3113 3127 3144 3147 3150 3152 3153 3155 3156 3158 3159 3160 3161 3162 3164 3165 3167 3170 3170 3170 3170
3177 3177 3175 3174 3175 3176 3176 3176 3176 3175 3175 3175 3176 3177 3177 3177 3178 3178 3179 3178 3178 3180 3179 3176 3174 3172 3171 3172 3172 3172 3173 3172 3172 3172 3172 3171 3171 3170 3170 3169 3168 3167 3166 3165 3163 3159 3157 3156 3155 3154 3155 3155 3155 3154 3153 3152 3150 3150 3149 3147 3147 3143 3142 3144 3129 3118 3133 3148 3147 3148 3149 3149 3152 3154 3155 3157 3158 3159 3160 3162 3164 3166 3168 3169 3168 3168
3175 3176 3175 3173 3174 3175 3175 3176 3176 3176 3176 3175 3176 3176 3176 3177 3177 3177 3177 3177 3177 3178 3179 3178 3175 3171 3170 3171 3171 3171 3172 3172 3172 3172 3171 3171 3170 3170 3169 3168 3167 3166 3165 3164 3161 3157 3155 3155 3154 3154 3154 3154 3153 3152 3151 3150 3148 3147 3146 3145 3146 3144 3143 3145 3140 3135 3141 3145 3145 3145 3145 3145 3149 3152 3154 3155 3157 3159 3159 3161 3164 3165 3166 3167 3166 3166
3173 3174 3174 3173 3173 3174 3175 3175 3175 3175 3175 3175 3175 3175 3175 3176 3176 3176 3176 3175 3176 3176 3177 3177 3174 3170 3170 3170 3170 3170 3172 3172 3172 3171 3171 3170 3169 3168 3167 3166 3166 3165 3164 3163 3160 3157 3155 3154 3153 3153 3154 3153 3151 3150 3149 3148 3147 3144 3142 3144 3145 3145 3144 3144 3144 3143 3142 3141 3142 3142 3141 3143 3147 3150 3153 3155 3157 3159 3160 3161 3163 3164 3165 3165 3165 3165
3171 3173 3173 3173 3173 3173 3173 3174 3174 3174 3174 3174 3174 3174 3175 3174 3174 3174 3174 3173 3174 3174 3174 3175 3173 3170 3169 3169 3169 3170 3171 3172 3171 3170 3169 3168 3168 3167 3166 3165 3164 3163 3163 3162 3159 3156 3154 3153 3152 3152 3152 3152 3150 3149 3148 3146 3145 3142 3140 3142 3145 3144 3143 3143 3143 3143 3142 3140 3140 3139 3140 3143 3146 3149 3153 3154 3156 3158 3160 3161 3162 3162 3163 3163 3163 3163
3170 3172 3173 3173 3173 3173 3172 3172 3173 3173 3173 3173 3173 3173 3173 3173 3172 3172 3172 3171 3172 3172 3172 3173 3171 3169 3168 3168 3169 3170 3171 3170 3170 3169 3168 3167 3167 3166 3165 3164 3163 3163 3162 3161 3159 3156 3154 3153 3152 3151 3151 3150 3149 3148 3147 3145 3144 3142 3139 3140 3143 3144 3142 3142 3142 3143 3142 3140 3139 3139 3141 3144 3148 3151 3153 3155 3156 3158 3159 3160 3161 3161 3162 3162 3162 3162
3169 3171 3172 3173 3173 3173 3172 3172 3172 3172 3172 3172 3172 3172 3172 3171 3171 3170 3170 3170 3170 3169 3169 3170 3169 3168 3167 3168 3168 3169 3170 3170 3170 3169 3167 3167 3166 3165 3164 3163 3163 3162 3162 3161 3159 3156 3154 3152 3151 3150 3149 3149 3148 3147 3146 3144 3142 3141 3139 3139 3141 3142 3142 3141 3141 3142 3142 3141 3140 3139 3142 3146 3149 3151 3153 3155 3156 3158 3159 3159 3160 3160 3160 3160 3161 3161
3169 3170 3171 3172 3173 3173 3173 3173 3172 3172 3172 3172 3171 3172 3171 3170 3169 3168 3168 3168 3168 3167 3167 3168 3168 3167 3167 3167 3168 3169 3169 3169 3169 3168 3167 3166 3165 3165 3164 3163 3162 3162 3161 3161 3159 3156 3154 3152 3150 3149 3147 3147 3147 3146 3145 3144 3142 3140 3139 3139 3139 3140 3141 3141 3141 3142 3142 3143 3142 3141 3144 3147 3150 3151 3153 3155 3156 3157 3158 3158 3159 3159 3159 3159 3160 3160
3170 3170 3171 3171 3172 3172 3173 3172 3172 3172 3171 3171 3170 3170 3170 3169 3168 3167 3167 3167 3166 3165 3166 3167 3167 3167 3167 3168 3169 3169 3169 3169 3168 3167 3166 3166 3165 3165 3164 3163 3161 3161 3160 3159 3158 3156 3153 3152 3150 3148 3147 3146 3146 3146 3145 3144 3143 3141 3140 3139 3138 3138 3139 3140 3141 3142 3143 3145 3145 3145 3146 3149 3150 3152 3153 3154 3155 3156 3157 3158 3158 3158 3158 3159 3159 3159
3170 3170 3170 3171 3171 3171 3171 3171 3171 3171 3171 3170 3169 3169 3168 3168 3167 3166 3166 3165 3165 3165 3166 3167 3167 3167 3168 3168 3169 3169 3169 3168 3168 3167 3166 3166 3165 3165 3164 3162 3161 3160 3159 3158 3157 3155 3153 3151 3150 3148 3147 3145 3145 3144 3144 3144 3144 3142 3141 3139 3138 3137 3138 3139 3140 3142 3144 3145 3147 3148 3149 3150 3151 3152 3153 3154 3155 3156 3157 3157 3157 3157 3158 3158 3158 3158
3170 3170 3170 3170 3170 3170 3170 3170 3170 3170 3169 3169 3169 3168 3167 3167 3166 3166 3165 3165 3165 3166 3167 3168 3168 3169 3169 3169 3168 3168 3168 3168 3168 3167 3166 3165 3165 3164 3163 3162 3160 3159 3158 3157 3156 3155 3153 3151 3149 3147 3146 3145 3144 3143 3143 3143 3143 3143 3142 3140 3139 3138 3138 3139 3140 3141 3143 3145 3147 3149 3150 3151 3151 3152 3153 3154 3155 3156 3157 3156 3156 3156 3156 3156 3157 3157
3170 3170 3170 3170 3170 3170 3170 3169 3169 3168 3168 3168 3168 3167 3167 3166 3166 3166 3165 3165 3166 3166 3167 3168 3169 3169 3169 3169 3168 3168 3168 3168 3167 3166 3165 3165 3164 3163 3162 3161 3160 3158 3157 3156 3155 3154 3153 3151 3149 3147 3145 3144 3143 3142 3142 3141 3142 3142 3142 3142 3141 3140 3140 3141 3141 3142 3144 3145 3147 3149 3150 3151 3151 3152 3153 3154 3155 3156 3156 3155 3155 3156 3155 3156 3156 3157
3169 3170 3170 3169 3170 3170 3169 3169 3168 3168 3167 3167 3167 3166 3166 3166 3166 3166 3166 3167 3167 3167 3168 3169 3169 3169 3169 3169 3168 3168 3167 3167 3166 3165 3165 3164 3163 3162 3161 3160 3159 3158 3156 3155 3154 3153 3152 3151 3149 3147 3146 3144 3143 3143 3142 3141 3141 3141 3142 3142 3142 3142 3142 3143 3143 3144 3145 3147 3148 3148 3149 3150 3151 3152 3153 3154 3155 3155 3155 3155 3155 3156 3155 3156 3156 3157
3169 3169 3169 3169 3169 3169 3169 3168 3167 3167 3167 3166 3166 3166 3167 3167 3167 3167 3167 3167 3167 3167 3168 3169 3169 3169 3169 3169 3168 3167 3166 3165 3165 3164 3164 3163 3162 3161 3160 3159 3158 3157 3156 3154 3153 3152 3151 3150 3149 3147 3146 3145 3144 3143 3142 3141 3141 3141 3141 3142 3142 3143 3144 3144 3145 3145 3146 3147 3148 3149 3150 3150 3151 3152 3153 3154 3154 3155 3155 3155 3155 3155 3155 3155 3156 3156
3169 3169 3169 3169 3169 3168 3168 3167 3167 3166 3166 3166 3166 3166 3167 3167 3168 3168 3168 3168 3167 3167 3168 3168 3168 3169 3169 3168 3167 3166 3165 3164 3164 3163 3163 3162 3161 3160 3159 3159 3157 3156 3155 3154 3152 3151 3149 3149 3148 3147 3146 3145 3144 3144 3143 3142 3142 3141 3142 3143 3143 3144 3145 3146 3146 3147 3147 3148 3149 3149 3150 3151 3152 3153 3153 3154 3154 3154 3153 3153 3153 3154 3154 3155 3155 3156
3169 3169 3169 3168 3168 3168 3167 3167 3166 3167 3167 3167 3167 3167 3167 3168 3168 3168 3168 3168 3168 3167 3167 3167 3168 3168 3168 3168 3167 3166 3164 3163 3163 3162 3162 3161 3161 3160 3159 3158 3157 3156 3154 3153 3151 3150 3148 3148 3147 3146 3146 3145 3144 3144 3143 3143 3143 3143 3143 3144 3144 3145 3146 3146 3147 3148 3148 3149 3150 3150 3151 3152 3152 3153 3153 3154 3153 3153 3152 3152 3152 3153 3154 3154 3155 3156
3169 3168 3168 3168 3168 3168 3167 3166 3167 3168 3168 3167 3167 3167 3168 3168 3168 3168 3168 3168 3167 3167 3167 3167 3167 3167 3167 3167 3166 3165 3164 3163 3162 3161 3161 3160 3160 3159 3158 3157 3156 3155 3154 3152 3150 3148 3147 3147 3147 3146 3146 3145 3144 3144 3144 3144 3144 3144 3144 3145 3145 3146 3146 3147 3148 3149 3149 3150 3150 3151 3152 3152 3153 3153 3154 3153 3152 3152 3152 3152 3152 3153 3154 3155 3156 3156
3167 3167 3167 3168 3168 3168 3167 3167 3167 3168 3168 3167 3167 3167 3168 3168 3168 3168 3168 3168 3167 3167 3166 3167 3167 3167 3167 3166 3165 3165 3164 3162 3161 3160 3160 3159 3159 3158 3157 3156 3155 3154 3153 3152 3150 3148 3146 3146 3146 3146 3146 3145 3145 3145 3145 3145 3145 3145 3146 3146 3147 3147 3148 3148 3149 3149 3150 3150 3151 3152 3152 3153 3154 3154 3153 3152 3152 3152 3152 3152 3153 3153 3154 3155 3156 3157
3166 3166 3166 3167 3167 3168 3167 3167 3167 3167 3167 3167 3168 3168 3168 3168 3168 3168 3168 3167 3167 3166 3166 3166 3166 3166 3166 3165 3165 3164 3163 3161 3160 3159 3159 3158 3158 3157 3156 3155 3154 3153 3153 3151 3149 3148 3146 3145 3145 3146 3146 3145 3145 3145 3145 3145 3145 3146 3147 3147 3148 3148 3149 3149 3150 3150 3150 3151 3151 3152 3153 3153 3153 3153 3152 3152 3152 3153 3153 3153 3153 3154 3155 3155 3156 3156
3164 3165 3165 3166 3166 3167 3167 3167 3167 3167 3167 3167 3168 3168 3168 3168 3168 3169 3168 3167 3166 3166 3165 3165 3165 3165 3165 3165 3164 3163 3162 3161 3160 3159 3158 3157 3157 3156 3155 3154 3153 3152 3152 3150 3149 3147 3146 3145 3145 3145 3145 3145 3145 3145 3145 3145 3146 3146 3147 3148 3148 3149 3150 3150 3151 3151 3151 3151 3152 3152 3153 3153 3153 3152 3153 3153 3153 3153 3153 3154 3154 3154 3154 3155 3155 3156
3162 3162 3163 3164 3165 3165 3166 3166 3167 3167 3166 3167 3168 3168 3169 3169 3169 3169 3169 3166 3164 3164 3165 3164 3165 3164 3164 3164 3163 3162 3161 3160 3159 3158 3157 3156 3156 3155 3154 3153 3152 3151 3151 3150 3148 3147 3146 3145 3145 3145 3145 3145 3145 3145 3145 3145 3146 3146 3147 3148 3149 3150 3150 3151 3151 3151 3151 3151 3151 3152 3152 3152 3152 3153 3153 3153 3154 3154 3154 3154 3154 3154 3154 3154 3155 3155
3160 3160 3161 3161 3162 3163 3164 3165 3165 3165 3165 3166 3167 3167 3168 3168 3169 3170 3169 3166 3164 3164 3164 3164 3164 3163 3163 3162 3162 3161 3160 3159 3158 3158 3156 3155 3154 3154 3153 3152 3151 3150 3149 3149 3148 3147 3146 3145 3145 3145 3145 3145 3145 3145 3146 3146 3146 3146 3147 3148 3149 3149 3150 3150 3151 3151 3150 3151 3151 3151 3152 3152 3153 3153 3153 3153 3153 3153 3153 3153 3153 3154 3154 3154 3154 3155
3158 3158 3158 3159 3159 3160 3161 3162 3162 3162 3163 3164 3166 3166 3167 3167 3168 3168 3167 3164 3163 3164 3163 3163 3163 3162 3162 3161 3161 3160 3159 3158 3158 3157 3156 3155 3153 3152 3151 3150 3150 3149 3148 3148 3147 3146 3146 3145 3145 3145 3145 3145 3145 3145 3146 3146 3147 3147 3147 3148 3148 3149 3149 3150 3150 3150 3150 3150 3151 3152 3152 3152 3153 3153 3153 3153 3153 3153 3153 3153 3153 3153 3153 3154 3154 3154
3156 3156 3156 3156 3157 3158 3159 3159 3160 3160 3161 3162 3163 3164 3165 3165 3165 3165 3164 3163 3163 3163 3163 3162 3162 3161 3161 3160 3160 3159 3158 3158 3157 3156 3155 3154 3153 3152 3151 3150 3149 3148 3147 3147 3146 3146 3145 3145 3145 3145 3145 3145 3145 3145 3146 3146 3147 3147 3147 3148 3148 3148 3149 3149 3150 3150 3150 3150 3151 3152 3152 3152 3153 3153 3153 3153 3153 3152 3152 3152 3152 3153 3153 3153 3153 3154
3155 3154 3154 3155 3155 3155 3156 3157 3158 3158 3159 3160 3161 3162 3162 3163 3162 3162 3163 3163 3163 3163 3162 3162 3161 3160 3160 3159 3159 3158 3157 3157 3156 3155 3154 3153 3152 3151 3150 3149 3148 3147 3146 3146 3145 3145 3145 3145 3145 3145 3145 3145 3145 3145 3146 3146 3147 3147 3147 3147 3148 3148 3148 3149 3149 3149 3150 3150 3151 3151 3152 3152 3152 3153 3153 3153 3152 3152 3152 3152 3152 3152 3152 3152 3153 3153
3153 3153 3153 3154 3154 3154 3154 3155 3155 3156 3156 3157 3158 3159 3160 3160 3161 3162 3162 3162 3162 3162 3161 3161 3160 3159 3159 3158 3158 3157 3157 3156 3155 3154 3153 3152 3151 3150 3149 3147 3147 3146 3145 3145 3145 3144 3144 3144 3145 3145 3145 3145 3145 3145 3145 3146 3147 3147 3147 3147 3147 3148 3148 3148 3148 3149 3149 3149 3150 3151 3151 3152 3152 3152 3152 3152 3152 3152 3152 3152 3151 3151 3151 3151 3151 3151
3152 3152 3152 3153 3153 3154 3153 3153 3153 3153 3154 3155 3156 3157 3158 3159 3160 3161 3162 3162 3161 3161 3160 3160 3159 3159 3158 3158 3157 3156 3156 3155 3154 3153 3152 3151 3150 3148 3147 3146 3146 3145 3144 3144 3144 3144 3144 3143 3144 3144 3144 3144 3145 3145 3145 3146 3146 3147 3147 3147 3147 3147 3148 3148 3148 3148 3148 3149 3149 3150 3150 3151 3151 3151 3151 3152 3152 3151 3151 3150 3150 3149 3149 3149 3149 3150
3150 3151 3151 3151 3152 3152 3152 3151 3151 3151 3152 3153 3154 3155 3156 3157 3159 3160 3161 3161 3160 3160 3159 3159 3159 3158 3158 3157 3156 3156 3155 3154 3153 3152 3151 3149 3148 3147 3146 3145 3145 3144 3144 3143 3143 3143 3143 3143 3143 3143 3143 3144 3144 3144 3145 3145 3146 3146 3146 3147 3147 3147 3147 3147 3147 3147 3148 3148 3149 3149 3149 3150 3150 3151 3151 3151 3151 3151 3150 3149 3148 3147 3147 3147 3147 3148
3150 3150 3150 3151 3151 3150 3149 3149 3148 3149 3150 3151 3152 3153 3155 3156 3157 3159 3161 3160 3159 3159 3159 3159 3158 3158 3157 3156 3156 3155 3154 3153 3152 3151 3150 3148 3147 3146 3145 3145 3144 3143 3143 3143 3142 3142 3142 3142 3142 3142 3142 3143 3143 3143 3144 3144 3145 3145 3146 3146 3146 3146 3146 3146 3146 3146 3147 3147 3148 3148 3149 3149 3150 3150 3150 3150 3150 3150 3149 3148 3147 3146 3146 3146 3146 3146
3149 3149 3149 3149 3149 3148 3147 3147 3147 3148 3149 3150 3152 3154 3156 3157 3158 3159 3159 3160 3159 3159 3158 3158 3158 3157 3156 3156 3155 3154 3153 3152 3151 3150 3148 3147 3146 3145 3144 3144 3143 3143 3142 3142 3142 3141 3141 3141 3141 3141 3141 3142 3142 3142 3143 3143 3144 3144 3145 3145 3145 3145 3145 3145 3145 3146 3146 3147 3147 3148 3148 3149 3149 3149 3149 3149 3149 3148 3148 3147 3146 3145 3145 3145 3145 3145
3147 3148 3148 3148 3147 3147 3146 3146 3147 3148 3149 3150 3152 3154 3155 3157 3158 3158 3159 3160 3159 3159 3158 3158 3157 3157 3156 3155 3154 3153 3152 3151 3149 3148 3147 3146 3145 3144 3143 3143 3142 3142 3141 3141 3141 3141 3140 3140 3140 3140 3140 3141 3141 3141 3142 3142 3142 3143 3143 3144 3144 3144 3144 3144 3144 3145 3145 3146 3146 3147 3148 3148 3148 3148 3148 3148 3147 3147 3146 3146 3145 3144 3144 3144 3144 3144
3146 3146 3146 3146 3146 3146 3146 3146 3147 3147 3148 3150 3151 3152 3153 3154 3156 3158 3159 3159 3159 3158 3158 3157 3157 3156 3155 3154 3153 3152 3151 3150 3148 3147 3146 3145 3144 3143 3142 3142 3141 3141 3140 3140 3140 3140 3140 3139 3139 3139 3139 3139 3139 3140 3140 3140 3140 3141 3141 3142 3142 3143 3143 3143 3143 3144 3145 3145 3146 3146 3147 3147 3147 3147 3147 3147 3146 3146 3145 3144 3144 3143 3143 3143 3143 3143
3144 3144 3145 3144 3144 3144 3145 3145 3146 3146 3147 3148 3149 3151 3152 3153 3155 3157 3157 3158 3158 3158 3157 3157 3156 3155 3154 3153 3152 3151 3150 3148 3147 3146 3145 3144 3143 3142 3142 3141 3141 3140 3140 3139 3139 3139 3139 3138 3138 3138 3138 3138 3138 3138 3138 3138 3138 3139 3139 3140 3141 3141 3142 3142 3142 3143 3144 3145 3145 3146 3146 3146 3146 3145 3145 3145 3145 3144 3144 3143 3142 3142 3142 3142 3142 3142